Regional Weather Roundup
Issued by NWS

Home | Current Version | Previous Version | Text Only | Print | Product List | Glossary On
Versions: 1 2 3 4 5 6 7 8 9 10 11 12 13 14 15 16 17 18 19 20 21 22 23 24 25 26 27 28 29 30 31 32 33 34 35 36 37 38 39 40 41 42 43 44 45 46 47 48 49 50
000
ASUS43 KTOP 220159
RWRKS

WEATHER ROUNDUP FOR KANSAS
NATIONAL WEATHER SERVICE GOODLAND KS
900 PM CDT THU MAY 21 2015

NOTE:  "FAIR" INDICATES FEW OR NO CLOUDS BELOW 12,000 FEET WITH NO
SIGNIFICANT WEATHER AND/OR OBSTRUCTIONS TO VISIBILITY.

KSZ001>006-013>018-027>032-041>047-220300-
NORTHWEST KANSAS

CITY           SKY/WX    TMP DP  RH WIND       PRES   REMARKS
GOODLAND       CLOUDY    53  44  71 S9        30.19R
HAYS           MOCLDY    55  41  58 S7        30.21R
HILL CITY      CLOUDY    56  44  64 S6        30.20R
RUSSELL        MOCLDY    54  46  74 S8        30.19R
$$

KSZ061>065-074>080-084>089-220300-
SOUTHWEST KANSAS

CITY           SKY/WX    TMP DP  RH WIND       PRES   REMARKS
DODGE CITY     CLOUDY    57  45  64 SE7       30.20R
ELKHART          N/A     52  43  72 SE9         N/A
GARDEN CITY    CLOUDY    55  45  68 SE6       30.18S
GREAT BEND     MOCLDY    57  45  62 E5        30.20S
LIBERAL        CLOUDY    57  45  62 SE7       30.18F
$$

KSZ066>073-081>083-090>101-220300-
SOUTHEAST KANSAS

CITY           SKY/WX    TMP DP  RH WIND       PRES   REMARKS
CHANUTE        MOCLDY    55  49  80 SE3       30.21S
COFFEYVILLE    PTCLDY    56  50  80 NE5       30.20S
HUTCHINSON     PTCLDY    54  46  74 CALM      30.21R
NEWTON         PTCLDY    55  43  62 E3        30.22S
PARSONS        MOCLDY    54  52  93 CALM      30.22S
WICHITA INTL   PTCLDY    57  45  64 SE6       30.20S
WICHITA JABRA  CLEAR     56  45  66 E3        30.20R
WINFIELD       CLEAR     57  47  69 SE5       30.21S
$$

KSZ007>012-019>026-033>040-048>060-102>105-220300-
NORTHEAST KANSAS

CITY           SKY/WX    TMP DP  RH WIND       PRES   REMARKS
CONCORDIA      MOCLDY    57  43  59 CALM      30.20R
EMPORIA        CLEAR     55  46  71 SE3       30.20S
LAWRENCE       CLEAR     57  50  77 CALM      30.20R
MANHATTAN      PTCLDY    58  46  64 CALM      30.19S
OLATHE IND     CLEAR     61  45  55 CALM      30.20S
OLATHE EXE     CLEAR     61  43  51 CALM      30.19S
SALINA         MOCLDY    60  46  59 S5        30.21R
TOPEKA BILLARD CLEAR     62  46  55 CALM      30.20S
TOPEKA FORBES  CLEAR     59  49  69 SE5       30.20S
$$


USA.gov is the U.S. government's official web portal to all federal, state and local government web resources and services.